2019-072C (44705 NORAD) Tracking and Keplerian Element Data

This shows tracking and keplerian element data for the satellite.

Feedback or suggestion? Click here.




ElementValue
Catalog44705
Name2019-072C
Epoch Orbit146
Epoch Day316.79840034
Epoch Year2019
RAAN29.5213
Inclination97.4851
Eccentricity0.0014098
Argument of Perigee246.1225
Mean Anonmoly251.7937
Mean Motion15.23616619
Decay Rate-7.3E-07
L11 44705U 19072C 19316.79840034 -.00000073 00000-0 00000+0 0 9994
L22 44705 97.4851 29.5213 0014098 246.1225 251.7937 15.23616619 1467

Live tracking and technical data element details for 2019-072C (NORAD 44705). 2019-072C can be tracked NOW for your location showing map with azimuth and elevation plus other details from your city location.

Track the satellite on the map from your city or location and see movement details for azimuth, elevation, latitude, longitude, range, height, and movement on the map or in text.







IsCatalogInMostPopularTable: catalog: 44705, numindb: 4
Update: records affected: 1



GetName: 44705 2019-072C

Hit Count: updated at: Thu, 14 Nov 2019 06:14:49 GMT